星链-33846 (STARLINK-33846)

导读

STARLINK-33846是美国太空探索技术公司SpaceX星链互联网星座中的一颗卫星,于2025年5月2日发射入轨。星链项目旨在为全球提供高速低延迟宽带互联网服务,该卫星的成功入轨进一步扩充了星链星座规模,推动全球网络覆盖建设。

基本信息
目录编号:
63780
目录名称:
STARLINK-33846
国际标识:
2025-091F
轨道中心:
EARTH
卫星名称:
星链-33846
卫星全名:
星链-33846 (STARLINK-33846)
卫星状态:
在轨 (已飞行490 天)
发射日期:
2025-05-02 UTC
国别 :
美国 (US)
星等 :
--
轨道信息
数据来源 国际轨道数据
星历时间: 2026-09-03T10:41:07+0800
1天前
查看轨道信息
半长轴: 6861.242km
偏心率: 0.0001092
轨道倾角: 43.000°
近地点辐角 281.447°
升交点赤经 130.798°
平近点角 78.626°
近地点: 482.355km
远地点: 483.855km
周期: 94.268分钟
每日圈数: 15.275615
详细信息
固有亮度:
5
最大亮度:
2.5
卫星平台:
Starlink V1.0
覆盖范围:
全球
运营商:
太空探索技术公司
运营商所在国:
美国
制造商(研发单位):
太空探索技术公司
制造商所在国:
美国
使用方式:
暂无
卫星简介
Starlink 计划是 SpaceX 推出的全球卫星互联网项目,通过发射低轨道卫星,为全球尤其是偏远地区提供高速、低延迟的互联网服务。自 2019 年起,Starlink 已部署数千颗卫星,旨在缩小全球数字鸿沟,推动互联网普及。该项目还为军事、航空等行业提供通信支持,带来广泛经济效益。
2D轨道图
3D轨道图
轨道高度分析图
轨道倾角分析图
轨道综合分析图
查看轨道综合分析图
交会数据列表
事件ID 空间交会对象 最接近时刻(TCA) 交会距离 交会风险概率(CRP) 交会风险指数(CRI) 操作
CDM_260906-230205-612006-378021
2026-09-06T
23:02:41+0000
0.945 km
远距离
2.067115E-5 中风险 0.61
CDM_260906-080805-612006-378021
2026-09-06T
08:08:13+0000
0.987 km
远距离
1.783248E-5 中风险 0.6
CDM_260906-094205-612006-378021
2026-09-06T
09:42:22+0000
1.058 km
极远距离
1.400687E-5 中风险 0.58
CDM_260907-030505-777706-378021
2026-09-07T
03:05:28+0000
1.313 km
极远距离
7.974919E-6 低风险 0.53
CDM_260907-061102-057606-378021
2026-09-07T
06:11:24+0000
2.086 km
极远距离
2.452459E-6 低风险 0.43
CDM_260907-003605-612006-378021
2026-09-07T
00:36:50+0000
2.369 km
极远距离
1.311068E-6 低风险 0.37
CDM_260906-212805-612006-378021
2026-09-06T
21:28:32+0000
2.580 km
极远距离
1.130214E-6 低风险 0.36
CDM_260906-031106-378006-402921
2026-09-06T
03:11:13+0000
2.859 km
极远距离
1.116058E-6 低风险 0.36
CDM_260906-063405-612006-378021
2026-09-06T
06:34:04+0000
2.807 km
极远距离
1.000425E-6 低风险 0.35
CDM_260906-111605-612006-378021
2026-09-06T
11:16:31+0000
2.970 km
极远距离
9.33067E-7 极低风险 0.34